OPS 4682 DEB, 38430

Orbit data source: Space-Track

OPS 4682 DEB, 38430 is space debris in LEO originally from a launch on Sat, 03 Apr 1965 UTC launched from the Air Force Western Test Range (AFWTR). Debris objects in space refer to the collection of defunct objects orbiting the Earth. Examples of debris include non-operational satellites, rocket bodies, and fragments generated from explosions, collisions, or faulty payload assembly.

Loading next visibility...
Identifier
38430, 1965-027EK
Orbit
LEO
Country
Flag of USUS
Related business
Manufacturer
Unknown
Mission
Spacecraft
Bus & Motor
Unknown
Mass
Unknown
Launch date (UTC)
1965-04-03 (61 years ago)
Launch vehicle
Unknown
Launch site
Air Force Western Test Range (AFWTR)
Object type
Payload
Rocket body
Debris
Shape & HBR
Unknown shape, 0.1 m
Radar Cross Section
Medium (>0.1 m² and <1 m²)

Expand to show TLE details & history
Last TLE update: 16 hours ago

TLE from 16 hours ago
0 OPS 4682 DEB
1 38430U 65027EK  26263.06411669 -.00000187  00000-0 -64311-3 0  9996
2 38430  90.2740  24.9219 0053214  96.6214 264.0969 13.00242530676029
Epoch: 2026-09-20T01:32Z
TLE epoch observation values (Epoch: 2026-09-20T01:32:19.682Z)
Latitude
-0.00002°
Longitude
2.87623°
Altitude
1,268.416 km
Speed
7.219 km/s
True Right ascension
01h 39m 41s
True Declination
0° 00' 00"
Sunlit
Object was in full shadow at epoch
Visualization orbit readout
Latitude
Unknown
Longitude
Unknown
Altitude
Unknown
Speed
Unknown
Apparent Right ascension
Unknown
Apparent Declination
Unknown
Sunlit
N/A
Visualization observer readout
Local Sidereal Time
10:57:16
Azimuth
Unknown
Elevation
Unknown
Doppler factor
Unknown
Orbital elements
Apogee altitude
1,298.899 km
Perigee altitude
1,217.627 km
Semi-major axis
7,636.4 km
Eccentricity
0.00532
Inclination
90.274°
RAAN
24.9219°
Arg. of periapsis
96.6214°
True anomaly
263.49077°
Mean anomaly
264.0969°
Eccentric anomaly
263.79379°
Mean motion
3.25245 °/min
Orbital period
110.69 mins
BSTAR
-0.00064311
Loading maneuver chart data...
Computing Atmospheric mass density...
Loading historical data...
Loading historical data...
Loading historical data...
Loading historical data...
Loading historical data...
Loading historical data...
Loading historical data...

Documentation

Showing up to 5 results
|